Probability
0 0 0 0 0 0 0 0 0 0 0 0 0 0 0 0 0 0 0 0 0 0 0 0 0 0 0 0 0 0 0 0 0 0 0 0 0 0 0 0 0 0 0
0 0 0 0 0 0 0 0 0 0 0 0 0 0 0 0 0 0 0 0 0 0 0 0 0 0 0 0 0 0 0 0 0 0 0 0 0 0 0 0 0 0 0
0 0 0 0 0 0 0 0 0 0 0 0 0 0 0 0 0 0 0 0 0 0 0 0 0 0 0 0 0 0 0 1 1 1 0 0 0 0 0 0 0 0 0
0 0 0 0 0 0 0 0 0 0 0 0 0 0 0 0 0 0 0 0 0 0 0 0 0 0 0 0 0 0 0 1 2 2 1 0 0 0 0 0 0 0 0
0 0 0 0 0 0 0 0 0 0 0 0 0 0 0 0 0 0 0 0 0 0 0 0 0 0 0 0 0 0 0 1 2 2 1 0 0 0 0 0 0 0 0
0 0 0 0 0 0 0 0 0 0 0 0 0 0 0 0 0 0 0 0 0 0 0 0 0 0 0 0 0 0 0 0 1 1 0 0 0 0 0 0 0 0 0
0 0 0 0 0 0 0 0 0 0 0 0 0 0 0 0 0 0 0 0 0 0 0 0 0 0 0 0 0 0 0 0 0 0 0 0 0 0 0 0 0 0 0
0 0 0 0 0 0 0 0 0 0 0 0 0 0 0 0 0 0 0 0 0 0 0 0 0 0 0 0 0 0 0 0 0 0 0 0 0 0 0 0 0 0 0
0 0 0 0 0 0 0 0 0 0 0 0 0 0 0 0 0 0 0 0 0 0 0 0 0 0 0 0 0 0 0 0 0 0 0 0 0 0 0 0 0 0 0
0 0 0 0 0 0 0 0 0 0 0 0 0 0 0 0 0 0 0 0 0 0 0 0 0 0 0 0 0 0 0 0 0 0 0 0 0 0 0 0 0 0 0
0 0 0 0 0 0 0 0 0 0 0 0 0 0 0 0 0 0 0 0 0 0 0 0 0 0 0 0 0 0 0 0 0 0 0 0 0 0 0 0 0 0 0
0 0 0 0 0 0 0 0 0 0 0 0 0 0 0 0 0 0 0 0 0 0 0 0 0 0 0 0 0 0 0 0 0 0 0 0 0 0 0 0 0 0 0
0 0 0 0 0 0 0 0 0 0 0 0 0 0 0 0 0 0 0 0 0 0 0 0 0 0 0 0 0 0 0 0 0 0 0 0 0 0 0 0 0 0 0
0 0 0 0 0 0 0 1 0 0 0 0 0 0 0 0 0 0 0 0 0 0 0 0 0 0 0 0 0 0 0 0 0 0 0 0 0 0 0 0 0 0 0
0 0 0 0 0 0 0 0 0 0 0 0 0 0 0 0 0 0 0 0 0 0 0 0 0 0 0 0 0 0 0 0 0 0 0 0 0 0 0 0 0 0 0
0 0 0 0 0 0 0 0 0 0 0 0 0 0 0 0 0 0 0 0 0 0 0 0 0 0 0 0 0 0 0 0 0 0 0 0 0 0 0 0 0 0 0
0 0 0 0 0 0 0 0 0 0 0 0 0 0 0 0 0 0 0 0 0 0 0 0 0 0 0 0 0 0 0 0 0 0 0 0 0 0 0 0 0 0 0
0 0 0 0 0 0 0 0 0 0 0 0 0 0 0 0 0 0 0 0 0 0 0 0 0 0 0 0 0 0 0 0 0 0 0 0 0 0 0 0 0 0 0
0 0 0 0 0 0 0 0 0 0 0 0 0 0 0 0 0 0 0 0 0 0 0 0 0 0 0 0 0 0 0 0 0 0 0 0 0 0 0 0 0 0 0
0 0 0 0 0 0 0 0 0 0 0 0 0 0 0 0 0 0 0 0 0 0 0 0 0 0 0 0 0 0 0 0 0 0 0 0 0 0 0 0 0 0 0
0 0 0 0 0 0 0 0 0 0 0 0 0 0 0 0 0 0 0 0 0 0 0 0 0 0 0 0 0 0 0 0 0 0 0 0 0 0 0 0 0 0 0
0 0 0 0 0 0 0 0 0 0 0 0 0 0 0 0 0 0 0 0 0 0 0 0 0 0 0 0 0 0 0 0 0 0 0 0 0 0 0 0 0 0 0
0 0 0 0 0 0 0 0 0 0 0 0 0 0 0 0 0 0 0 0 0 0 0 0 0 0 0 0 0 0 0 0 0 0 0 0 0 0 0 0 0 0 0
0 0 0 0 0 0 0 0 0 0 0 0 0 0 0 0 0 0 0 0 0 0 0 0 0 0 0 0 0 0 0 0 0 0 0 0 0 0 0 0 0 0 0
0 0 0 0 0 0 0 0 0 0 0 0 0 0 0 0 0 0 0 0 0 0 0 0 0 0 0 0 0 0 0 0 0 0 0 0 0 0 0 0 0 0 0
0 0 0 0 0 0 0 0 0 0 0 0 0 0 0 0 0 0 0 0 0 0 0 0 0 0 0 0 0 0 0 0 0 0 0 0 0 0 0 0 0 0 0
Wind_Speed
3 3 3 3 3 2 2 3 3 4 4 4 4 4 5 5 5 4 4 8 10 12 13 13 13 12 12 12 11 11 11 10 9 9 9 9 10 10 10 10 11 11 11
3 3 3 3 3 3 3 3 4 4 4 3 4 5 5 5 5 5 5 6 9 12 13 14 13 12 12 12 12 11 11 11 10 9 9 9 10 10 10 10 11 11 11
4 4 3 3 4 4 4 3 3 3 3 4 5 5 5 5 5 6 6 5 5 8 11 13 12 12 12 12 11 11 11 11 10 9 9 9 10 10 11 11 11 12 12
5 4 4 4 4 3 3 3 3 3 4 4 4 4 4 4 6 6 5 5 4 4 6 10 11 11 12 12 12 12 11 11 11 10 9 10 10 11 11 12 12 12 12
5 4 4 4 4 3 3 3 3 3 3 4 5 5 5 5 6 6 6 6 5 5 4 6 9 9 11 12 12 12 12 11 11 10 10 10 11 11 11 12 12 13 13
4 4 4 4 4 3 4 3 4 4 4 4 4 5 5 6 5 5 6 5 5 5 5 5 4 5 9 11 12 12 12 12 12 11 10 11 11 12 12 12 13 13 13
3 4 3 3 3 4 5 5 4 4 4 2 2 4 5 5 6 5 5 4 5 5 4 5 4 4 4 8 11 13 13 13 13 12 11 11 11 12 12 13 13 13 13
2 2 3 3 4 4 4 4 4 4 3 3 2 2 4 3 3 4 4 4 5 4 4 5 4 4 4 3 5 10 12 13 13 12 11 11 11 12 13 13 14 14 13
2 2 2 2 3 4 4 5 4 5 5 4 4 4 3 4 3 3 3 4 4 3 4 4 4 5 4 4 4 6 8 10 12 12 12 12 12 12 13 13 13 13 13
3 3 2 2 2 2 3 3 4 4 4 5 3 4 4 3 3 3 3 3 4 4 4 4 4 4 4 4 4 5 7 8 9 10 11 11 11 11 12 12 12 12 11
3 3 3 3 3 3 3 4 3 3 3 4 4 3 3 4 5 5 5 4 3 3 4 4 3 3 4 4 4 5 7 7 8 8 9 9 10 11 11 12 12 12 12
3 4 3 3 3 3 3 4 4 4 4 4 4 3 3 3 3 4 6 5 5 3 3 3 3 4 4 4 5 6 7 7 8 8 8 8 9 10 11 12 12 12 13
4 4 3 3 3 3 4 4 3 4 4 4 4 4 4 4 3 4 5 6 6 4 3 3 3 3 4 3 4 6 7 8 8 8 8 8 9 9 10 11 11 11 11
4 5 4 3 3 3 4 4 3 4 3 4 5 5 4 4 4 4 4 5 6 5 4 4 2 3 3 4 5 6 5 7 8 8 8 8 8 9 9 10 10 11 11
4 5 4 4 4 4 4 4 3 3 3 3 4 4 4 4 4 4 4 4 5 7 7 4 3 3 3 3 4 4 4 6 7 8 8 8 8 8 9 9 10 11 11
6 5 5 5 4 4 4 3 3 3 3 3 3 3 4 4 4 4 4 4 5 7 8 4 3 3 3 3 4 4 5 7 7 7 7 8 8 8 9 9 10 11 11
6 6 5 5 5 5 4 3 4 4 4 3 3 3 4 4 4 4 4 4 5 5 8 6 3 2 3 4 4 4 4 4 4 7 8 8 8 8 8 9 10 10 10
6 6 5 5 5 5 5 5 5 4 4 5 5 4 5 4 4 4 4 5 5 5 6 9 5 3 4 4 4 5 4 3 4 7 8 9 8 8 8 9 9 9 9
6 6 6 6 6 6 6 6 5 5 5 5 5 5 5 5 5 5 5 5 5 5 5 6 6 4 3 3 4 4 4 4 4 5 7 8 8 8 9 9 8 8 9
6 6 6 6 6 6 6 6 6 6 5 5 4 4 4 4 5 5 5 5 5 5 5 5 5 4 3 3 3 3 4 3 4 4 5 6 6 7 8 9 9 8 8
6 6 6 6 6 5 5 6 6 5 5 5 5 4 5 5 6 5 5 5 5 4 4 4 5 4 4 3 3 3 5 4 5 3 3 4 4 4 4 7 8 8 8
6 6 6 6 7 6 9 10 8 6 5 5 6 5 5 5 7 8 8 7 5 4 4 4 4 5 6 4 4 4 4 4 5 2 3 5 3 5 5 4 8 9 9
6 6 6 6 6 8 11 11 10 7 6 5 5 5 5 5 5 5 7 7 6 6 6 5 5 6 5 5 4 5 5 5 6 3 3 5 3 5 4 5 9 9 9
5 5 6 6 6 8 11 12 11 7 6 6 5 5 6 6 6 6 5 5 5 5 5 4 4 5 5 4 4 5 5 5 5 3 2 4 3 4 4 4 8 8 8
6 6 6 6 6 8 11 12 11 6 5 6 6 5 5 6 8 8 6 6 6 5 5 5 6 5 6 6 5 3 3 3 4 3 1 3 3 4 3 3 5 6 6
6 6 6 6 6 7 10 12 11 5 6 6 5 5 6 7 8 8 5 5 6 6 5 5 5 5 4 5 6 3 3 3 3 4 2 2 2 2 4 3 3 3 4
Wind_Direction
199 200 204 205 211 213 217 225 228 233 239 244 242 241 244 240 242 242 251 249 248 253 261 264 265 267 266 265 264 264 263 262 262 259 261 263 265 266 267 268 271 273 275
201 200 204 209 215 215 216 219 229 230 235 238 247 246 246 250 249 247 246 251 250 252 258 261 264 266 268 268 267 266 264 264 262 260 261 263 264 266 268 269 271 273 276
201 204 205 215 221 217 218 222 233 236 236 239 247 250 250 250 252 253 250 247 249 251 251 256 260 263 265 267 268 267 266 267 265 263 264 266 267 268 269 270 270 272 273
204 204 209 219 223 216 213 219 223 237 243 241 247 252 251 252 253 253 254 251 246 246 245 248 253 257 260 263 264 266 267 267 267 267 265 267 268 269 272 273 272 272 272
212 209 217 222 217 218 219 222 225 223 244 251 251 254 254 254 255 256 255 251 244 241 240 244 245 248 254 259 260 263 264 266 267 269 269 268 269 270 271 273 273 272 271
223 216 225 228 218 219 224 222 231 233 235 248 259 259 258 256 254 249 249 249 245 241 238 240 244 248 247 253 258 261 264 266 267 267 268 267 269 270 271 272 272 272 272
235 220 228 231 228 229 232 225 225 235 238 228 259 275 268 255 251 249 246 245 248 248 241 237 238 242 248 248 255 261 265 267 269 270 269 269 270 272 272 273 272 272 272
301 253 239 239 232 233 241 239 234 236 238 209 215 262 282 290 266 253 246 238 244 246 244 241 239 238 240 241 252 258 264 269 270 271 271 272 273 274 275 275 275 273 272
334 329 297 279 259 237 239 240 236 238 248 240 217 218 240 254 291 276 247 241 242 243 248 248 242 241 238 238 247 256 257 263 267 270 272 272 273 274 274 275 276 275 275
355 341 335 327 311 281 263 253 244 246 245 253 251 234 237 236 252 282 279 253 245 246 248 249 247 248 241 238 241 244 249 255 262 267 270 271 273 275 277 277 277 277 278
345 344 332 332 332 316 296 272 259 254 249 256 255 261 259 257 246 256 273 273 271 251 243 242 243 247 249 248 249 252 250 252 258 261 263 267 271 273 276 279 279 279 279
336 342 335 331 319 310 307 297 276 261 251 255 255 253 251 250 255 254 264 273 271 266 252 244 242 245 245 245 253 255 250 252 256 258 260 265 268 271 274 277 279 281 281
331 331 329 326 323 319 314 313 303 290 267 262 259 260 258 257 267 267 272 277 275 273 258 249 237 244 249 247 256 259 255 252 254 255 257 262 267 270 273 276 278 280 282
322 329 333 331 329 332 329 323 309 307 305 285 274 267 263 265 269 269 268 276 283 277 259 254 263 247 251 251 263 260 262 257 254 255 259 262 265 269 273 275 278 280 283
339 341 338 339 340 343 338 333 326 321 319 319 309 294 279 273 268 267 266 263 265 279 276 263 261 265 259 255 266 262 261 266 261 258 260 264 268 272 275 277 280 282 283
345 344 345 340 343 345 343 336 321 317 320 315 309 314 306 295 286 273 264 263 259 265 274 279 266 276 280 280 283 274 269 275 267 266 265 266 268 273 276 279 281 282 284
347 344 340 341 342 342 338 328 320 322 312 309 312 310 304 309 300 290 279 270 266 261 270 281 281 280 274 278 287 279 273 269 272 267 267 265 266 270 274 279 280 282 283
346 346 344 344 342 338 335 328 316 316 310 306 305 305 303 305 304 299 297 285 276 270 268 278 282 279 275 278 281 278 278 274 269 271 267 265 268 271 273 276 280 283 282
350 352 352 350 347 340 338 333 325 319 310 303 301 302 305 307 302 301 298 293 289 281 268 270 277 277 276 282 286 281 279 275 276 280 275 270 272 277 277 278 280 282 283
351 351 347 344 344 340 339 334 330 325 318 316 317 316 313 311 306 305 300 299 297 291 280 273 277 279 277 281 282 281 287 280 283 286 282 282 282 282 281 281 280 280 282
347 343 342 342 341 336 338 332 324 322 320 319 319 316 315 316 314 309 303 304 307 301 297 291 284 285 280 283 281 280 278 287 280 265 277 276 280 281 284 284 283 282 284
341 341 340 336 337 334 336 336 329 317 315 316 315 313 310 313 317 317 313 308 303 298 299 295 292 287 288 288 291 283 284 286 279 263 269 271 261 267 267 263 274 279 281
332 332 329 328 325 326 330 329 327 315 308 305 305 309 310 314 312 312 316 315 310 305 293 282 283 285 288 289 287 282 278 277 275 284 284 274 261 262 265 269 273 273 279
319 316 316 314 314 319 325 324 323 314 306 304 302 302 305 312 314 314 312 311 309 310 307 298 285 287 292 295 285 279 280 284 282 282 272 270 278 273 284 279 280 278 282
313 311 309 310 311 313 319 321 324 311 307 306 304 302 301 301 308 315 309 305 305 306 313 308 302 303 307 312 312 302 297 294 290 285 292 273 284 293 285 276 285 291 292
306 308 306 304 303 304 311 316 318 307 304 302 300 298 294 299 304 307 301 297 296 300 309 315 319 323 321 321 327 310 287 280 283 279 300 302 289 315 302 291 300 306 305